TimeEDT,TemperatureF,Dew PointF,Humidity,Sea Level PressureIn,VisibilityMPH,Wind Direction,Wind SpeedMPH,Gust SpeedMPH,PrecipitationIn,Events,Conditions,WindDirDegrees,DateUTC
12:52 AM,35.1,21.0,57,30.26,10.0,North,5.8,-,N/A,,Clear,350,2013-03-28 04:52:00
1:52 AM,33.1,21.0,61,30.26,10.0,North,4.6,-,N/A,,Clear,350,2013-03-28 05:52:00
2:52 AM,34.0,21.0,59,30.25,10.0,North,3.5,-,N/A,,Clear,360,2013-03-28 06:52:00
3:52 AM,35.1,21.0,57,30.25,10.0,NNW,3.5,-,N/A,,Clear,340,2013-03-28 07:52:00
4:52 AM,34.0,19.9,56,30.25,10.0,North,9.2,-,N/A,,Clear,10,2013-03-28 08:52:00
5:52 AM,34.0,19.9,56,30.26,10.0,NNW,4.6,-,N/A,,Clear,330,2013-03-28 09:52:00
6:52 AM,30.9,23.0,72,30.28,10.0,NNW,3.5,-,N/A,,Clear,340,2013-03-28 10:52:00
7:52 AM,32.0,23.0,69,30.29,8.0,WNW,5.8,-,N/A,,Clear,300,2013-03-28 11:52:00
8:52 AM,37.9,24.1,57,30.31,10.0,WNW,3.5,-,N/A,,Clear,290,2013-03-28 12:52:00
9:52 AM,44.1,21.0,40,30.32,10.0,NNW,9.2,-,N/A,,Clear,330,2013-03-28 13:52:00
10:52 AM,46.9,21.0,36,30.31,10.0,NW,8.1,16.1,N/A,,Clear,310,2013-03-28 14:52:00
11:52 AM,48.0,19.9,33,30.30,10.0,North,13.8,18.4,N/A,,Clear,350,2013-03-28 15:52:00
12:52 PM,51.1,21.0,31,30.28,10.0,NNW,10.4,18.4,N/A,,Partly Cloudy,330,2013-03-28 16:52:00
1:52 PM,53.1,21.0,29,30.27,10.0,NNW,8.1,-,N/A,,Clear,330,2013-03-28 17:52:00
2:52 PM,54.0,19.9,26,30.24,10.0,NW,9.2,17.3,N/A,,Clear,310,2013-03-28 18:52:00
3:52 PM,55.9,21.0,26,30.22,10.0,NNW,8.1,-,N/A,,Partly Cloudy,330,2013-03-28 19:52:00
4:52 PM,57.9,19.0,22,30.20,10.0,North,9.2,-,N/A,,Clear,350,2013-03-28 20:52:00
5:52 PM,57.0,17.1,21,30.20,10.0,NNW,5.8,-,N/A,,Clear,340,2013-03-28 21:52:00
6:52 PM,55.0,17.1,23,30.22,10.0,North,6.9,-,N/A,,Clear,350,2013-03-28 22:52:00
7:52 PM,48.0,17.1,29,30.24,10.0,North,8.1,-,N/A,,Clear,360,2013-03-28 23:52:00
8:52 PM,46.0,19.9,35,30.26,10.0,North,5.8,-,N/A,,Clear,350,2013-03-29 00:52:00
9:52 PM,46.0,19.9,35,30.28,10.0,NNW,4.6,-,N/A,,Clear,340,2013-03-29 01:52:00
10:52 PM,37.9,21.9,53,30.30,10.0,North,4.6,-,N/A,,Clear,360,2013-03-29 02:52:00
11:52 PM,43.0,21.0,42,30.30,10.0,North,4.6,-,N/A,,Clear,10,2013-03-29 03:52:00